JA111 SCEL-SAWH

Flight info

Callsign JA111
Flight time N/A
Altitude 37000
Route LINER6C LINER UM783 ANKON UZ122 VUGDU UW44 ESQ UT658 GAL DCT DABLI DABLI1Q
Aircraft A320/M-SDE3FGHIRWY/LB1

Departure

Time 2026-05-06 18:30
Airport Comodoro Arturo Merino Benítez International Airport (SCEL)

Arrival

Time N/A
Airport Ushuaia - Malvinas Argentinas International Airport (SAWH)
Time Latitude Longitude Altitude Speed Heading
2026-05-06 17:54 -33.39707 -70.78954 1564 ft 0 kts 356°
2026-05-06 18:18 -33.39726 -70.78952 1564 ft 4 kts 360°
2026-05-06 18:18 -33.39753 -70.78954 1564 ft 4 kts
2026-05-06 18:18 -33.39779 -70.78961 1564 ft 4 kts 30°
2026-05-06 18:19 -33.39794 -70.78979 1564 ft 1 kts 87°
2026-05-06 18:19 -33.39794 -70.78985 1564 ft 0 kts 87°
2026-05-06 18:21 -33.39792 -70.78935 1564 ft 14 kts 87°
2026-05-06 18:21 -33.39726 -70.78869 1564 ft 15 kts 354°
2026-05-06 18:22 -33.39616 -70.78880 1564 ft 16 kts 357°
2026-05-06 18:22 -33.39501 -70.78891 1564 ft 17 kts 355°
2026-05-06 18:22 -33.39379 -70.78896 1564 ft 18 kts 359°
2026-05-06 18:22 -33.39250 -70.78902 1564 ft 19 kts 356°
2026-05-06 18:23 -33.39116 -70.78910 1564 ft 20 kts 358°
2026-05-06 18:23 -33.38975 -70.78917 1564 ft 21 kts 358°
2026-05-06 18:23 -33.38827 -70.78920 1564 ft 22 kts 359°
2026-05-06 18:23 -33.38674 -70.78931 1564 ft 22 kts 357°
2026-05-06 18:24 -33.38515 -70.78940 1564 ft 23 kts 357°
2026-05-06 18:24 -33.38363 -70.78982 1564 ft 22 kts 303°
2026-05-06 18:24 -33.38357 -70.79167 1564 ft 23 kts 266°
2026-05-06 18:24 -33.38368 -70.79361 1564 ft 24 kts 265°
2026-05-06 18:25 -33.38380 -70.79562 1564 ft 25 kts 267°
2026-05-06 18:25 -33.38382 -70.79771 1564 ft 25 kts 268°
2026-05-06 18:25 -33.38395 -70.79986 1565 ft 26 kts 265°
2026-05-06 18:25 -33.38303 -70.80110 1566 ft 24 kts 355°
2026-05-06 18:26 -33.38133 -70.80122 1566 ft 25 kts 356°
2026-05-06 18:26 -33.37956 -70.80132 1566 ft 26 kts 358°
2026-05-06 18:26 -33.37771 -70.80143 1566 ft 27 kts 358°
2026-05-06 18:26 -33.37581 -70.80151 1566 ft 28 kts 358°
2026-05-06 18:27 -33.37383 -70.80162 1567 ft 29 kts 357°
2026-05-06 18:27 -33.37184 -70.80174 1567 ft 27 kts 352°
2026-05-06 18:27 -33.37108 -70.80262 1570 ft 0 kts 268°
2026-05-06 18:28 -33.37108 -70.80272 1570 ft 7 kts 268°
2026-05-06 18:28 -33.37134 -70.80346 1574 ft 11 kts 229°
2026-05-06 18:28 -33.37196 -70.80373 1573 ft 0 kts 178°
2026-05-06 18:29 -33.37217 -70.80372 1573 ft 15 kts 179°
2026-05-06 18:29 -33.37535 -70.80355 1574 ft 76 kts 176°
2026-05-06 18:29 -33.38301 -70.80310 1573 ft 141 kts 176°
2026-05-06 18:29 -33.39415 -70.80286 1843 ft 173 kts 176°
2026-05-06 18:30 -33.40672 -70.80251 2542 ft 182 kts 179°
2026-05-06 18:30 -33.41974 -70.80174 3210 ft 197 kts 178°
2026-05-06 18:30 -33.43426 -70.80082 3684 ft 220 kts 179°
2026-05-06 18:30 -33.45029 -70.79982 4243 ft 240 kts 180°
2026-05-06 18:31 -33.46782 -70.79880 4755 ft 264 kts 180°
2026-05-06 18:31 -33.48681 -70.79771 5242 ft 279 kts 180°
2026-05-06 18:31 -33.50644 -70.79658 5971 ft 284 kts 181°
2026-05-06 18:31 -33.52632 -70.79546 6727 ft 289 kts 181°
2026-05-06 18:32 -33.54653 -70.79404 7474 ft 293 kts 180°
2026-05-06 18:32 -33.56694 -70.79197 8236 ft 296 kts 179°
2026-05-06 18:32 -33.58756 -70.78963 8984 ft 299 kts 179°
2026-05-06 18:32 -33.60837 -70.78718 9743 ft 302 kts 179°
2026-05-06 18:33 -33.62952 -70.78473 10295 ft 312 kts 180°
2026-05-06 18:33 -33.65198 -70.78224 10449 ft 335 kts 179°
2026-05-06 18:33 -33.67590 -70.77965 10670 ft 353 kts 179°
2026-05-06 18:33 -33.70051 -70.77696 11210 ft 358 kts 179°
2026-05-06 18:34 -33.72545 -70.77417 11818 ft 361 kts 179°
2026-05-06 18:34 -33.75055 -70.77136 12427 ft 364 kts 179°
2026-05-06 18:34 -33.77555 -70.76861 13044 ft 367 kts 179°
2026-05-06 18:34 -33.80107 -70.76580 13655 ft 369 kts 179°
2026-05-06 18:35 -33.82674 -70.76301 14222 ft 372 kts 180°
2026-05-06 18:35 -33.85263 -70.76020 14758 ft 375 kts 180°
2026-05-06 18:35 -33.87871 -70.75737 15253 ft 378 kts 180°
2026-05-06 18:35 -33.90501 -70.75453 15753 ft 380 kts 180°
2026-05-06 18:36 -33.93148 -70.75151 16260 ft 384 kts 179°
2026-05-06 18:36 -33.95810 -70.74737 16766 ft 388 kts 177°
2026-05-06 18:36 -33.98485 -70.74227 17251 ft 391 kts 176°
2026-05-06 18:36 -34.01185 -70.73662 17707 ft 395 kts 175°
2026-05-06 18:37 -34.03898 -70.73078 18190 ft 398 kts 175°
2026-05-06 18:37 -34.05711 -70.72692 18514 ft 400 kts 176°
2026-05-06 18:37 -34.09396 -70.71933 19118 ft 403 kts 176°
2026-05-06 18:37 -34.12172 -70.71381 19625 ft 406 kts 176°
2026-05-06 18:38 -34.14966 -70.70833 20395 ft 407 kts 177°
2026-05-06 18:38 -34.17770 -70.70286 21023 ft 410 kts 178°
2026-05-06 18:38 -34.20609 -70.69738 21525 ft 415 kts 178°
2026-05-06 18:38 -34.23485 -70.69185 22069 ft 421 kts 178°
2026-05-06 18:39 -34.26395 -70.68623 22686 ft 425 kts 178°
2026-05-06 18:39 -34.29324 -70.68051 23192 ft 427 kts 178°
2026-05-06 18:39 -34.32266 -70.67471 23610 ft 430 kts 178°
2026-05-06 18:40 -34.38209 -70.66295 24275 ft 436 kts 178°
2026-05-06 18:40 -34.41207 -70.65701 24586 ft 438 kts 178°
2026-05-06 18:40 -34.44226 -70.65101 24894 ft 441 kts 178°
2026-05-06 18:40 -34.47261 -70.64499 25224 ft 444 kts 178°
2026-05-06 18:41 -34.50319 -70.63897 25543 ft 446 kts 179°
2026-05-06 18:41 -34.53396 -70.63292 25935 ft 450 kts 179°
2026-05-06 18:41 -34.56490 -70.62682 26288 ft 452 kts 179°
2026-05-06 18:41 -34.59606 -70.62063 26647 ft 455 kts 179°
2026-05-06 18:42 -34.62697 -70.61448 26908 ft 456 kts 179°
2026-05-06 18:42 -34.65840 -70.60824 27223 ft 459 kts 179°
2026-05-06 18:42 -34.69001 -70.60199 27573 ft 461 kts 179°
2026-05-06 18:42 -34.72181 -70.59570 27920 ft 463 kts 179°
2026-05-06 18:43 -34.75352 -70.58937 28420 ft 462 kts 179°
2026-05-06 18:43 -34.78519 -70.58302 28872 ft 461 kts 179°
2026-05-06 18:43 -34.81687 -70.57667 29298 ft 460 kts 179°
2026-05-06 18:43 -34.84843 -70.57036 29638 ft 460 kts 179°
2026-05-06 18:44 -34.86937 -70.56619 29849 ft 460 kts 179°
2026-05-06 18:44 -34.90089 -70.55991 30201 ft 459 kts 179°
2026-05-06 18:44 -34.94306 -70.55144 30649 ft 459 kts 180°
2026-05-06 18:44 -34.96394 -70.54724 30914 ft 459 kts 180°
2026-05-06 18:45 -34.99546 -70.54092 31291 ft 459 kts 180°
2026-05-06 18:45 -35.02697 -70.53463 31668 ft 459 kts 180°
2026-05-06 18:45 -35.05843 -70.52837 31976 ft 459 kts 180°
2026-05-06 18:45 -35.08997 -70.52209 32271 ft 459 kts 180°
2026-05-06 18:46 -35.12145 -70.51579 32566 ft 459 kts 180°
2026-05-06 18:46 -35.15297 -70.50947 32942 ft 459 kts 180°
2026-05-06 18:46 -35.18449 -70.50291 33294 ft 462 kts 177°
2026-05-06 18:46 -35.21575 -70.49204 33645 ft 474 kts 168°
2026-05-06 18:47 -35.24645 -70.47671 33973 ft 477 kts 166°
2026-05-06 18:47 -35.27707 -70.46112 34270 ft 477 kts 166°
2026-05-06 18:47 -35.30764 -70.44555 34536 ft 475 kts 166°
2026-05-06 18:47 -35.33813 -70.43004 34809 ft 474 kts 166°
2026-05-06 18:48 -35.36863 -70.41456 35093 ft 473 kts 165°
2026-05-06 18:48 -35.39903 -70.39917 35414 ft 472 kts 166°
2026-05-06 18:48 -35.42937 -70.38383 35650 ft 471 kts 165°
2026-05-06 18:48 -35.45960 -70.36852 35886 ft 470 kts 165°
2026-05-06 18:49 -35.48985 -70.35315 36123 ft 469 kts 165°
2026-05-06 18:49 -35.52000 -70.33777 36363 ft 469 kts 165°
2026-05-06 18:49 -35.55010 -70.32237 36582 ft 469 kts 165°
2026-05-06 18:49 -35.58022 -70.30700 36757 ft 469 kts 165°
2026-05-06 18:50 -35.61042 -70.29160 36914 ft 470 kts 165°
2026-05-06 18:50 -35.67135 -70.26050 36946 ft 479 kts 164°
2026-05-06 18:51 -35.73353 -70.22874 36933 ft 488 kts 164°
2026-05-06 18:51 -35.79679 -70.19629 36921 ft 495 kts 163°
2026-05-06 18:52 -35.85993 -70.16376 36909 ft 494 kts 163°
2026-05-06 18:52 -35.92333 -70.13111 36897 ft 493 kts 163°
2026-05-06 18:53 -35.98661 -70.09855 36884 ft 492 kts 162°
2026-05-06 18:53 -36.04975 -70.06594 36871 ft 492 kts 162°
2026-05-06 18:54 -36.11283 -70.03326 36864 ft 491 kts 162°
2026-05-06 18:54 -36.17589 -70.00062 36852 ft 491 kts 162°
2026-05-06 18:55 -36.23890 -69.96786 36840 ft 491 kts 162°
2026-05-06 18:55 -36.30181 -69.93513 36823 ft 490 kts 161°
2026-05-06 18:56 -36.36478 -69.90238 36808 ft 491 kts 161°
2026-05-06 18:56 -36.42787 -69.86977 36781 ft 490 kts 165°
2026-05-06 18:57 -36.49344 -69.85405 36759 ft 475 kts 185°
2026-05-06 18:57 -36.55794 -69.86456 36745 ft 465 kts 198°
2026-05-06 18:58 -36.62130 -69.88182 36736 ft 467 kts 198°
2026-05-06 18:58 -36.68456 -69.89895 36739 ft 469 kts 198°
2026-05-06 18:59 -36.74885 -69.91639 36744 ft 470 kts 198°
2026-05-06 18:59 -36.81274 -69.93382 36752 ft 470 kts 198°
2026-05-06 19:00 -36.87622 -69.95125 36756 ft 470 kts 198°
2026-05-06 19:00 -36.94020 -69.96875 36754 ft 471 kts 198°
2026-05-06 19:01 -37.00423 -69.98618 36759 ft 471 kts 198°
2026-05-06 19:01 -37.06832 -70.00378 36777 ft 471 kts 199°
2026-05-06 19:02 -37.13236 -70.02147 36772 ft 471 kts 199°
2026-05-06 19:02 -37.19636 -70.03915 36774 ft 472 kts 198°
2026-05-06 19:03 -37.26046 -70.05682 36777 ft 472 kts 198°
2026-05-06 19:03 -37.32457 -70.07456 36775 ft 472 kts 198°
2026-05-06 19:04 -37.38871 -70.09220 36776 ft 472 kts 198°
2026-05-06 19:04 -37.45287 -70.10998 36776 ft 472 kts 198°
2026-05-06 19:05 -37.51698 -70.12783 36774 ft 472 kts 197°
2026-05-06 19:05 -37.58113 -70.14572 36775 ft 472 kts 197°
2026-05-06 19:06 -37.64526 -70.16362 36774 ft 472 kts 197°
2026-05-06 19:06 -37.70941 -70.18153 36776 ft 472 kts 197°
2026-05-06 19:07 -37.77356 -70.19954 36780 ft 472 kts 197°
2026-05-06 19:07 -37.83773 -70.21748 36785 ft 473 kts 197°
2026-05-06 19:08 -37.90198 -70.23542 36784 ft 473 kts 197°
2026-05-06 19:08 -37.96571 -70.25338 36790 ft 472 kts 197°
2026-05-06 19:09 -38.02987 -70.27148 36797 ft 473 kts 197°
2026-05-06 19:09 -38.09408 -70.28956 36798 ft 473 kts 197°
2026-05-06 19:10 -38.15828 -70.30776 36800 ft 473 kts 197°
2026-05-06 19:10 -38.22245 -70.32600 36805 ft 473 kts 197°
2026-05-06 19:11 -38.28670 -70.34422 36804 ft 473 kts 197°
2026-05-06 19:11 -38.35093 -70.36251 36798 ft 473 kts 197°
2026-05-06 19:12 -38.41518 -70.38074 36799 ft 473 kts 197°
2026-05-06 19:12 -38.47946 -70.39904 36802 ft 474 kts 197°
2026-05-06 19:13 -38.54379 -70.41745 36803 ft 474 kts 197°
2026-05-06 19:13 -38.60817 -70.43587 36801 ft 474 kts 197°
2026-05-06 19:14 -38.67258 -70.45435 36809 ft 474 kts 197°
2026-05-06 19:14 -38.73655 -70.47259 36813 ft 474 kts 197°
2026-05-06 19:15 -38.80093 -70.49112 36811 ft 474 kts 197°
2026-05-06 19:15 -38.86528 -70.50971 36821 ft 474 kts 197°
2026-05-06 19:16 -38.92957 -70.52832 36822 ft 474 kts 196°
2026-05-06 19:16 -38.99389 -70.54691 36820 ft 474 kts 196°
2026-05-06 19:17 -39.05821 -70.56563 36820 ft 474 kts 197°
2026-05-06 19:17 -39.12249 -70.58428 36810 ft 474 kts 196°
2026-05-06 19:18 -39.18673 -70.60294 36809 ft 473 kts 196°
2026-05-06 19:18 -39.25098 -70.62166 36825 ft 473 kts 196°
2026-05-06 19:19 -39.31519 -70.64030 36829 ft 473 kts 196°
2026-05-06 19:19 -39.37940 -70.65913 36833 ft 473 kts 196°
2026-05-06 19:20 -39.44358 -70.67799 36831 ft 473 kts 196°
2026-05-06 19:20 -39.50767 -70.69680 36830 ft 472 kts 196°
2026-05-06 19:21 -39.57166 -70.71561 36831 ft 472 kts 196°
2026-05-06 19:21 -39.63569 -70.73456 36827 ft 472 kts 196°
2026-05-06 19:22 -39.69972 -70.75340 36832 ft 471 kts 196°
2026-05-06 19:22 -39.76365 -70.77229 36833 ft 471 kts 196°
2026-05-06 19:23 -39.82758 -70.79136 36834 ft 471 kts 196°
2026-05-06 19:23 -39.89147 -70.81039 36827 ft 471 kts 196°
2026-05-06 19:24 -39.95495 -70.82919 36821 ft 471 kts 196°
2026-05-06 19:24 -40.01882 -70.84815 36816 ft 471 kts 196°
2026-05-06 19:25 -40.08265 -70.86728 36813 ft 471 kts 196°
2026-05-06 19:25 -40.14648 -70.88648 36816 ft 470 kts 196°
2026-05-06 19:26 -40.21026 -70.90561 36813 ft 470 kts 196°
2026-05-06 19:26 -40.27403 -70.92474 36818 ft 470 kts 196°
2026-05-06 19:27 -40.33787 -70.94400 36821 ft 470 kts 196°
2026-05-06 19:27 -40.40167 -70.96329 36830 ft 470 kts 196°
2026-05-06 19:28 -40.46539 -70.98260 36834 ft 470 kts 196°
2026-05-06 19:28 -40.52916 -71.00186 36837 ft 470 kts 196°
2026-05-06 19:29 -40.59252 -71.02104 36836 ft 470 kts 196°
2026-05-06 19:29 -40.65630 -71.04039 36843 ft 470 kts 196°
2026-05-06 19:30 -40.72004 -71.05985 36845 ft 470 kts 196°
2026-05-06 19:30 -40.78385 -71.07933 36850 ft 471 kts 196°
2026-05-06 19:31 -40.84763 -71.09882 36846 ft 470 kts 196°
2026-05-06 19:31 -40.93285 -71.12506 36841 ft 470 kts 196°
2026-05-06 19:32 -40.99663 -71.14469 36845 ft 471 kts 196°
2026-05-06 19:32 -41.06041 -71.16433 36848 ft 471 kts 196°
2026-05-06 19:33 -41.12387 -71.18369 36850 ft 472 kts 193°
2026-05-06 19:33 -41.15705 -71.18812 36850 ft 475 kts 182°
2026-05-06 19:33 -41.18972 -71.18689 36851 ft 476 kts 180°
2026-05-06 19:34 -41.25645 -71.18363 36848 ft 477 kts 180°
2026-05-06 19:34 -41.32237 -71.18035 36852 ft 477 kts 180°
2026-05-06 19:35 -41.38874 -71.17716 36859 ft 477 kts 180°
2026-05-06 19:35 -41.45528 -71.17395 36869 ft 478 kts 180°
2026-05-06 19:36 -41.52169 -71.17082 36875 ft 478 kts 180°
2026-05-06 19:36 -41.58810 -71.16768 36881 ft 478 kts 180°
2026-05-06 19:37 -41.65455 -71.16452 36888 ft 477 kts 180°
2026-05-06 19:37 -41.72102 -71.16130 36885 ft 478 kts 180°
2026-05-06 19:38 -41.78738 -71.15800 36889 ft 477 kts 180°
2026-05-06 19:38 -41.85382 -71.15456 36895 ft 478 kts 180°
2026-05-06 19:39 -41.91976 -71.15113 36894 ft 478 kts 180°
2026-05-06 19:39 -41.98624 -71.14778 36897 ft 478 kts 180°
2026-05-06 19:40 -42.05268 -71.14425 36897 ft 478 kts 180°
2026-05-06 19:40 -42.11920 -71.14065 36896 ft 478 kts 180°
2026-05-06 19:41 -42.18568 -71.13722 36898 ft 478 kts 180°
2026-05-06 19:41 -42.25210 -71.13382 36898 ft 478 kts 180°
2026-05-06 19:42 -42.31866 -71.13035 36903 ft 478 kts 180°
2026-05-06 19:42 -42.38525 -71.12685 36906 ft 479 kts 180°
2026-05-06 19:43 -42.45173 -71.12339 36902 ft 478 kts 180°